Flag for Switzerland Weather past 2 weeks in Langenthal, Bern, Switzerland

Now
38 °F

Chilly.


Feels Like: 38 °F
Forecast: 46 / 51 °F
Wind: 1 mph from Southwest

Location: Wynau

Current Time: Mar 28, 2015 at 10:32:23 AM

Latest Report: Mar 28, 2015 at 9:00 AM


Visibility: N/A

Pressure: 30.29 "Hg

Humidity: 81%

Dew point: 33 °F

Location of LangenthalLocation

Historic Weather in Langenthal — Graph

°F

Langenthal temperature yesterday

Maximum temperature yesterday: 52 °F (at 4:00 PM)
Minimum temperature yesterday: 35 °F (at 11:00 PM)
Average temperature yesterday: 45 °F

Past Weeks' High & Low Weather Summary

 TemperatureHumidityPressure
High64 °F (Mar 18, 4:00 PM)100% (Mar 24, 3:00 AM)30.34 "Hg (Mar 24, 3:00 AM)
Low29 °F (Mar 28, 7:00 AM)30% (Mar 24, 4:00 PM)29.61 "Hg (Mar 25, 1:00 PM)
Average43 °F77%30.07 "Hg
* Reported Mar 13 9:00 AM — Mar 28 9:00 AM, Langenthal, Weather by CustomWeather, © 2015

Note: Actual official high and low records may vary slightly from our data, if they occured in-between our weather recording intervals... More about our weather records

Advertising

Langenthal weather history for previous 24 hours

 ConditionsComfort  
Time TempWeatherWind HumidityBarometerVisibility
9:00 AM
Sat, Mar 28
38 °FChilly.1 mph81%30.29 "HgN/A
8:00 AM31 °FChilly.1 mph98%30.33 "HgN/A
7:00 AM29 °FChilly.1 mph97%30.34 "HgN/A
6:00 AM29 °FChilly.No wind98%30.34 "HgN/A
5:00 AM30 °FChilly.1 mph98%30.34 "HgN/A
3:00 AM31 °FChilly.No wind96%30.34 "HgN/A
2:00 AM32 °FChilly.1 mph95%30.33 "HgN/A
1:00 AM34 °FChilly.No wind92%30.34 "HgN/A
12:00 AM34 °FChilly.2 mph90%30.34 "HgN/A
11:00 PM
Fri, Mar 27
35 °FChilly.2 mph91%30.32 "HgN/A
9:00 PM44 °FQuite cool.3 mph59%30.27 "HgN/A
8:00 PM44 °FQuite cool.2 mph66%30.25 "HgN/A
7:00 PM44 °FQuite cool.2 mph68%30.24 "HgN/A
6:00 PM50 °FCool.5 mph45%30.19 "HgN/A
5:00 PM52 °FCool.7 mph43%30.16 "HgN/A
4:00 PM52 °FCool.5 mph44%30.15 "HgN/A
3:00 PM51 °FCool.7 mph52%30.13 "HgN/A
2:00 PM50 °FCool.8 mph57%30.15 "HgN/A
1:00 PM50 °FCool.7 mph55%30.14 "HgN/A
12:00 PM49 °FCool.5 mph61%30.14 "HgN/A
11:00 AM46 °FCool.8 mph67%30.15 "HgN/A
10:00 AM47 °FCool.6 mph70%30.14 "HgN/A
Weather by CustomWeather, © 2015

See weather overviewHow to use our weather pages